GW4768 Weather Reports


Display with metric or nautical units.
time (UTC)temp
F
wind
direction
speed
MPH
gust
MPH
rain 1hr
in
rain 24hr
in
rain mn
in
humidity
%
barometer
mb
20260906040017 59 229 1.0 3.0 0.00 0.22 0.22 77 1018.2
20260906034521 61 150 0.0 4.0 0.00 0.22 0.22 72 1018.1
20260906033017 61 121 3.0 7.0 0.00 0.22 0.22 73 1018.0
20260906031509 61 123 5.0 7.0 0.00 0.22 0.22 72 1017.9
20260906030029 62 85 4.0 4.0 0.00 0.22 0.22 70 1017.5
20260906024532 62 86 3.0 4.0 0.00 0.23 0.22 70 1017.5
20260906023027 63 132 2.0 2.0 0.00 0.23 0.22 69 1017.5
20260906021527 64 69 0.0 2.0 0.00 0.23 0.22 67 1017.2
20260906020023 64 98 1.0 2.0 0.00 0.25 0.22 67 1017.0
20260906014523 66 281 0.0 1.0 0.00 0.27 0.22 62 1017.2
20260906013015 66 322 0.0 3.0 0.00 0.30 0.22 61 1017.1
20260906011513 66 311 3.0 4.0 0.00 0.31 0.22 59 1017.0
20260906010034 67 318 3.0 4.0 0.00 0.36 0.22 57 1016.9
20260906004532 69 313 3.0 4.0 0.00 0.40 0.22 55 1016.8
20260906003030 69 59 2.0 4.0 0.00 0.40 0.22 54 1016.8
20260906001529 69 17 1.0 4.0 0.00 0.40 0.22 52 1016.7
20260906000028 69 35 3.0 5.0 0.00 0.40 0.22 54 1016.5
20260905234522 69 19 3.0 6.0 0.00 0.40 0.22 54 1016.6
20260905233020 68 350 3.0 7.0 0.00 0.40 0.22 58 1016.6
20260905231518 68 360 3.0 9.0 0.00 0.40 0.22 58 1016.6
20260905230034 68 5 3.0 8.0 0.00 0.40 0.22 58 1016.6
20260905224539 68 360 5.0 8.0 0.00 0.40 0.22 62 1016.4
20260905223032 67 10 4.0 9.0 0.00 0.40 0.22 59 1017.0
20260905221537 68 9 5.0 11.0 0.00 0.40 0.22 57 1016.8
20260905220033 68 331 6.0 11.0 0.00 0.40 0.22 57 1017.2
20260905214529 67 9 4.0 8.0 0.00 0.40 0.22 57 1017.3
20260905213033 67 26 4.0 10.0 0.00 0.40 0.22 58 1017.7
20260905211536 66 310 4.0 8.0 0.00 0.40 0.22 61 1017.7
20260905210034 66 335 3.0 9.0 0.00 0.40 0.22 61 1017.9
20260905204533 66 28 2.0 8.0 0.00 0.40 0.22 57 1017.8
20260905203032 65 347 3.0 8.0 0.00 0.40 0.22 62 1018.1
20260905201534 64 31 4.0 8.0 0.00 0.40 0.22 65 1018.1
20260905200033 64 63 5.0 10.0 0.00 0.40 0.22 66 1018.4
20260905194530 63 38 4.0 8.0 0.00 0.40 0.22 68 1018.5
20260905193009 62 67 1.0 7.0 0.00 0.40 0.22 69 1018.6
20260905191504 62 59 2.0 5.0 0.00 0.40 0.22 70 1018.8
20260905190016 61 12 1.0 5.0 0.00 0.40 0.22 73 1019.1
20260905184521 60 59 3.0 5.0 0.00 0.40 0.22 75 1019.2
20260905183017 59 13 3.0 7.0 0.00 0.40 0.22 78 1019.4
20260905181515 59 38 5.0 8.0 0.00 0.40 0.22 80 1019.5
20260905180013 58 313 3.0 8.0 0.00 0.40 0.22 81 1019.6
20260905174513 58 296 2.0 5.0 0.00 0.40 0.22 80 1019.8
20260905173018 56 348 2.0 4.0 0.00 0.40 0.22 1020.0
20260905171503 56 360 1.0 4.0 0.00 0.40 0.22 83 1020.0
20260905170020 56 344 2.0 4.0 0.00 0.40 0.22 87 1020.1
20260905164519 55 265 2.0 4.0 0.00 0.40 0.22 87 1020.1
20260905163025 54 251 2.0 3.0 0.00 0.40 0.22 90 1020.1
20260905161520 53 315 1.0 3.0 0.00 0.40 0.22 92 1019.9
20260905160020 53 270 1.0 2.0 0.00 0.40 0.22 93 1020.0
20260905154513 53 42 1.0 2.0 0.00 0.40 0.22 93 1020.0
20260905153010 52 238 2.0 3.0 0.00 0.40 0.22 95 1020.3
20260905151508 51 5 0.0 2.0 0.00 0.40 0.22 95 1020.3
20260905150028 50 5 1.0 2.0 0.00 0.40 0.22 95 1020.1
20260905144527 50 53 0.0 2.0 0.00 0.40 0.22 95 1020.1
20260905143031 50 28 0.0 2.0 0.00 0.40 0.22 95 1019.9
20260905141521 50 114 1.0 2.0 0.00 0.40 0.22 95 1019.9
20260905140020 50 13 0.0 3.0 0.00 0.40 0.22 95 1019.7
20260905134513 50 40 0.0 3.0 0.00 0.40 0.22 95 1019.8
20260905133017 50 319 0.0 3.0 0.00 0.40 0.22 95 1019.5
20260905131545 50 360 1.0 2.0 0.00 0.41 0.22 95 1018.9
20260905130033 50 81 0.0 3.0 0.00 0.42 0.22 95 1019.1
20260905124539 50 71 0.0 1.0 0.00 0.48 0.22 95 1019.2
20260905123029 50 271 0.0 2.0 0.00 0.52 0.22 95 1018.8
20260905121531 50 153 0.0 2.0 0.00 0.54 0.22 95 1018.9
20260905120024 50 123 1.0 4.0 0.01 0.56 0.22 94 1018.9
20260905114535 50 234 0.0 2.0 0.01 0.58 0.22 94 1018.7
20260905113016 50 234 0.0 4.0 0.02 0.58 0.22 94 1018.6
20260905111538 50 246 1.0 8.0 0.03 0.58 0.22 94 1018.6
20260905110030 50 229 2.0 6.0 0.04 0.57 0.21 94 1018.6
20260905104529 50 244 4.0 6.0 0.08 0.57 0.21 94 1018.4
20260905103023 50 244 4.0 5.0 0.10 0.56 0.20 94 1018.8
20260905101506 50 241 2.0 4.0 0.09 0.55 0.19 94 1018.7
20260905100010 51 90 2.0 6.0 0.08 0.52 0.17 94 1018.1
20260905094503 51 248 0.0 2.0 0.05 0.49 0.13 94 1018.8
20260905093003 51 143 0.0 2.0 0.02 0.46 0.10 94 1018.5
20260905091517 51 321 1.0 6.0 0.03 0.46 0.10 94 1018.1
20260905090014 51 166 0.0 4.0 0.04 0.45 0.09 94 1018.4
20260905084534 51 232 0.0 3.0 0.05 0.44 0.08 93 1018.2
20260905083018 51 280 3.0 7.0 0.06 0.44 0.08 93 1018.5
20260905081507 51 47 1.0 3.0 0.06 0.43 0.07 93 1017.8
20260905080012 51 200 0.0 2.0 0.04 0.41 0.05 93 1018.4
20260905074504 51 119 2.0 3.0 0.02 0.39 0.03 92 1017.9
20260905073009 51 156 1.0 5.0 0.02 0.38 0.02 92 1018.5
20260905071524 51 173 1.0 2.0 0.01 0.37 0.01 93 1018.3
20260905070017 51 313 0.0 2.0 0.01 0.37 0.01 93 1018.1
20260905064512 51 85 0.0 7.0 0.01 0.37 0.01 93 1017.9
20260905063016 51 242 2.0 3.0 0.00 0.36 0.00 92 1018.1
20260905061507 51 234 3.0 4.0 0.00 0.36 0.00 92 1018.4
20260905060018 51 242 3.0 4.0 0.00 0.36 0.00 92 1018.1
20260905054503 51 230 0.0 2.0 0.00 0.36 0.36 92 1018.3
20260905053027 51 234 1.0 3.0 0.00 0.36 0.36 91 1018.4
20260905051534 51 124 3.0 4.0 0.00 0.36 0.36 92 1018.2
20260905050020 51 113 3.0 4.0 0.00 0.36 0.36 92 1018.3
20260905044519 51 118 3.0 4.0 0.00 0.36 0.36 91 1018.7
20260905043016 51 157 2.0 2.0 0.00 0.36 0.36 91 1018.9
20260905041516 51 58 0.0 2.0 0.00 0.36 0.36 90 1018.8